Location: Raitis
(47.2167°N, 11.3833°E)
Time: 08:16:00
(UTC+00:00)

ARGOS - Pass Details

Date: 03 March 2021
Orbit: 819 x 835 km, 98.4° (Epoch: 14 April)

Event Time Altitude Azimuth Distance (km) Brightness Sun altitude
Rises 17:49:05 0° 156° (SSE) 3,367 6.1 -8.7°
Reaches altitude 10° 17:51:26 10° 153° (SSE) 2,439 5.3 -9.1°
Maximum altitude 17:56:48 68° 72° (ENE) 902 3.2 -10.0°
Drops below altitude 10° 18:02:13 10° 351° (N) 2,459 5.8 -10.9°
Sets 18:04:35 0° 349° (NNW) 3,397 6.5 -11.3°
